Weather in Poselok Panozero

Russia / Republic of Karelia     64°58′22″N   32°51′44″E
temp.,
°C
wind,
m/s
gust,
m/s
humid.,
%
clouds,
%
prec.,
mm/h
press.,
hPa
HPBL,
m
25 july, sun
sun2500:00+11wsw2769100 0.0 1011170
03:00+11wsw2573100 0.0 1011127
06:00+12w3873100 0.1 1011432
09:00+16wnw366695 0.3 1012620
12:00+19nw474596 0.0 10132037
15:00+17nw3653100 0.1 10141033
18:00+20nw374587 0.0 10141746
21:00+16w2562100 0.0 1014123
26 july, mon
mon2600:00+14wnw247293 0.1 101592
03:00+13w289599 0.7 1015257
06:00+14wnw259344 0.0 1016224
09:00+16nw36715 0.0 1017694
12:00+20nnw474783 0.0 10181812
15:00+21nnw474698 0.0 10181983
18:00+20n564719 0.0 10191313
21:00+16nnw22635 0.0 102022
27 july, tue
tue2700:00+11ese238232 0.0 102158
03:00+10sse118676 0.0 102112
06:00+13ne11760 0.0 102173
09:00+19ne11507 0.0 1021516
12:00+23nw233989 0.0 10201355
15:00+22w22455 0.0 1019676
18:00+24nw124019 0.0 10171288
21:00+18se22679 0.2 101635
28 july, wed
wed2800:00+15s367710 0.1 1015105
03:00+14wsw279199 0.2 1013134
06:00+16w3108376 0.2 1011268
09:00+22wnw484974 0.2 1010598
12:00+25nw45435 0.0 10091298
15:00+27nnw353724 0.0 10072490
18:00+23ese565548 0.0 1006493
21:00+17se469679 11.8 1005157
29 july, thu
thu2900:00+15se369782 2.8 1004164
03:00+13sse25955 3.7 1002114
06:00+14sse019332 0.2 100169
09:00+18nne11797 0.7 999414
12:00+22ne215984 0.0 998999
15:00+21ne4369100 1.1 996623
18:00+15e3698100 18.1 995146
21:00+14ene359797 20.3 994298